www.pogodaiklimat.ru
ПОГОДА в Портленде
Время
и дата
18:15 18.06
18:35 18.06
18:55 18.06
19:15 18.06
19:35 18.06
19:55 18.06
20:15 18.06
20:35 18.06
20:55 18.06
21:15 18.06
21:35 18.06
21:55 18.06
22:15 18.06
22:35 18.06
22:55 18.06
23:15 18.06
23:35 18.06
23:55 18.06
00:15 19.06
00:35 19.06
00:55 19.06
01:15 19.06
01:35 19.06
01:55 19.06
02:15 19.06
02:35 19.06
02:55 19.06
03:15 19.06
03:35 19.06
03:55 19.06
04:15 19.06
04:35 19.06
04:55 19.06
05:15 19.06
05:35 19.06
05:55 19.06
06:35 19.06
06:55 19.06
07:15 19.06
07:55 19.06
08:15 19.06
08:35 19.06
08:55 19.06
09:15 19.06
09:35 19.06
09:55 19.06
10:15 19.06
10:35 19.06
Ветер
(напр.,м/с)
Видим. Явления Облачность Т
(С)
Тd
(С)
f
(%)
Тe
(С)
Тes
(С)
Комфортность P
(гПа)
Po
(гПа)
Тmin
(С)
Tmax
(С)
R
(мм)
R24
(мм)
S
(см)
штиль 0 16 км 2/2 1350 м +29.0 +23.0 70 +39 +40 очень
душно
990.9
штиль 0 16 км ясно +28.0 +24.0 79 +39 +40 очень
душно
990.9
штиль 0 16 км ясно +28.0 +24.0 79 +39 +40 очень
душно
990.9
штиль 0 16 км ясно +27.0 +24.0 84 +37 +37 очень
душно
990.9
штиль 0 16 км ясно +27.0 +24.0 84 +37 +37 очень
душно
990.9
ЮВ 2 16 км ясно +26.0 +24.0 89 +36 +36 очень
душно
990.9
штиль 0 16 км ясно +26.0 +24.0 89 +36 +36 очень
душно
991.3
штиль 0 16 км ясно +26.0 +24.0 89 +36 +36 очень
душно
991.3
штиль 0 16 км ясно +26.0 +24.0 89 +36 +36 очень
душно
991.6
штиль 0 16 км ясно +26.0 +24.0 89 +36 +36 очень
душно
991.6
Ю 2 16 км 2/2 1500 м +25.0 +25.0 100 +36 +36 очень
душно
991.9
ЮВ 2 16 км 8/8 1500 м +25.0 +24.0 94 +34 +34 очень
душно
991.9
Ю 2 16 км 8/8 1500 м +25.0 +24.0 94 +34 +34 очень
душно
991.9
штиль 0 16 км 8/8 1500 м +25.0 +24.0 94 +34 +34 очень
душно
991.9
штиль 0 16 км 5/5 1500 м +25.0 +24.0 94 +34 +34 очень
душно
991.9
штиль 0 16 км 2/2 1500 м +25.0 +24.0 94 +34 +34 очень
душно
991.9
штиль 0 16 км 5/5 1500 м +25.0 +24.0 94 +34 +34 очень
душно
991.9
штиль 0 16 км 2/2 1500 м +25.0 +24.0 94 +34 +34 очень
душно
991.9
штиль 0 16 км 2/2 1800 м +25.0 +24.0 94 +34 +34 очень
душно
991.9
штиль 0 16 км ясно +24.0 +24.0 100 +33 +33 очень
душно
992.3
штиль 0 16 км ясно +24.0 +24.0 100 +33 +33 очень
душно
992.3
ЮВ 2 16 км ясно +24.0 +23.0 94 +32 +32 очень
душно
991.9
штиль 0 16 км 2/2 1500 м +24.0 +23.0 94 +32 +32 очень
душно
992.3
штиль 0 16 км 8/8 1500 м +24.0 +23.0 94 +32 +32 очень
душно
992.3
штиль 0 16 км 8/8 1500 м +24.0 +23.0 94 +32 +32 очень
душно
992.6
штиль 0 16 км 8/8 1650 м +23.0 +23.0 100 +32 +32 очень
душно
992.6
ЮВ 2 16 км 5/5 1650 м +24.0 +22.0 89 +31 +31 очень
душно
992.6
штиль 0 16 км 5/5 1650 м +24.0 +22.0 89 +31 +31 очень
душно
992.9
штиль 0 16 км 10/10 1800 м +24.0 +22.0 89 +31 +31 очень
душно
993.3
штиль 0 16 км 5/5 1650 м +23.0 +21.0 89 +31 +31 очень
душно
993.6
штиль 0 16 км 2/2 1800 м +23.0 +22.0 94 +31 +31 очень
душно
993.6
штиль 0 16 км ясно +23.0 +21.0 89 +31 +31 очень
душно
993.9
штиль 0 16 км ясно +23.0 +21.0 89 +31 +31 очень
душно
993.9
штиль 0 16 км ясно +22.0 +22.0 100 +29 +29 очень
душно
994.2
штиль 0 16 км ясно +23.0 +22.0 94 +31 +31 очень
душно
994.6
штиль 0 16 км ясно +23.0 +21.0 89 +31 +31 очень
душно
994.9
ЮВ 2 16 км ясно +24.0 +21.0 83 +30 +32 очень
душно
995.6
ЮВ 2 16 км ясно +24.0 +22.0 89 +31 +33 очень
душно
995.6
ЮВ 2 16 км ясно +24.0 +21.0 83 +30 +35 очень
душно
995.9
ЮВ 4 16 км ясно +25.0 +21.0 78 +31 +35 очень
душно
996.2
Ю 4 16 км ясно +27.0 +20.0 66 +33 +39 очень
душно
996.2
нст 3
{6}
16 км ясно +28.0 +20.0 62 +34 +42 очень
душно
996.5
Ю 4 16 км ясно +27.0 +20.0 66 +33 +39 очень
душно
996.5
ЮЗ 4 16 км ясно +28.0 +21.0 66 +35 +45 очень
душно
996.5
Ю 4 16 км ясно +28.0 +21.0 66 +35 +45 очень
душно
996.5
Ю 4 16 км ясно +29.0 +21.0 62 +36 +46 очень
душно
996.5
ЮЗ 3 16 км ясно +28.0 +20.0 62 +34 +49 очень
душно
996.5
Ю 4 16 км ясно +29.0 +21.0 62 +36 +48 очень
душно
996.5
Местоположение метеостанции Portland Municipal Airport: широта 36.5929 долгота -86.4769 высота над уровнем моря 239 м.
В архиве по умолчанию представлена погода в Портленде за последние 1-2 суток. Обновление информации о фактической погоде в базе происходит ежечасно! Архивные данные за месяц целиком и за предыдущие месяцы Вы можете получить, выбрав интересующий диапазон дат из раскрывающегося списка и нажав кнопку "Ввод!".
Внимание! Архив погоды МЕТАР в базе сайта по станциям, не включенным в климатический монитор, хранится не более 60 дней. Нет смысла пытаться выбрать более раннюю дату.
*Определитесь, кто Вы:
Внимание! Время в таблицах - местное (без учета летнего времени). Для получения всемирного времени необходимо вычесть поправку, которая равна -6 ч.
Смотрите также архив погоды в соседних городах и на ближайших метеорологических станциях:
Партнеры нашего сайта:      
Пояснения к столбцам:
  • Ветер - указаны скорость ветра в м/с - средняя за 10 мин, порывы в срок и между сроками (в фигурных скобках) и направление, откуда дует ветер: С - северный,
  • СВ - северо-восточный, В - восточный, ЮВ - юго-восточный, Ю - южный, ЮЗ - юго-западный, З - западный, СЗ - северо-западный.
  • Видимость - горизонтальная дальность видимости в метрах или километрах. При видимости от 1 до 10 км при отсутствии осадков обычно наблюдается дымка, при ухудшении видимости до 1 км и менее - туман. В сухую погоду видимость может ухудшаться дымом, пылью или мглою.
  • Явления - указаны атмосферные явления, наблюдавшиеся в срок или в последний час перед сроком; фигурными скобками обозначены явления, наблюдавшиеся между сроками (за 1-3 часа до срока); квадратными скобками обозначены град или гололедные отложения с указанием их диаметра в мм.
  • Облачность - указаны через наклонную черту общая и нижняя облачность в баллах и высота нижней границы облаков в метрах; квадратными скобками обозначены формы облаков: Ci - перистые, Cs - перисто-слоистые, Cc - перисто-кучевые, Ac - высококучевые, As - высокослоистые, Sc - слоисто-кучевые, Ns - слоисто-дождевые, Cu - кучевые, Cb - кучево-дождевые. Подробнее классификацию облаков см. в Атласе облаков (PDF).
  • T - Температура воздуха - температура, измеренная на высоте 2 м над землей.
  • Td - Температура точки росы - температура, при понижении до которой содержащийся в воздухе водяной пар достигнет насыщения.
  • f - Относительная влажность воздуха - влажноcть воздуха, измеренная на высоте 2 м над землей.
  • Te - Эффективная температура - температура, которую ощущает одетый по сезону человек в тени. Характеристика душности погоды. При расчете учитывается влияние влажности воздуха и скорости ветра на теплоощущения человека.
  • Tes - Эффективная температура на солнце - температура, которую ощущает человек, с поправкой на солнечный нагрев. Характеристика знойности погоды. Зависит от высоты солнца над горизонтом, облачности и скорости ветра. Ночью, в пасмурную погоду, а также при ветре 12 м/с и более поправка равна нулю.
  • P - Атмосферное давление - приведенное к уровню моря атмосферное давление.
  • Po - Атмосферное давление - измеренное на уровне метеостанции атмосферное давление.
  • Tmin - Минимальная температура - минимум температуры воздуха на высоте 2 м над землей.
  • Tmax - Максимальная температура - максимум температуры воздуха на высоте 2 м над землей.
  • R - Количество осадков - Количество выпавших осадков за период времени, мм. При наведении курсора мыши на число - период времени, за который выпало указанное количество осадков.
  • R24 - Количество осадков - Количество выпавших осадков за 24 часа, мм.
  • S - Снежный покров - Высота снежного покрова, см. При наведении курсора мыши на число - состояние снежного покрова и степень покрытия местности в баллах.